This is the latest recevied weather packets stored in our database for station/object CALDNA-WX. If no packets are shown the sender has not sent any weather packets the latest 10 day(s).
| Time | Temp. | Humidity | Pressure | Rain* | Wind** | Luminosity | Snow |
|---|---|---|---|---|---|---|---|
| 1778146243 | 3.33° C | 71% | 986 hPa | 0 mm | - | - | - |
| 1778145323 | 3.33° C | 77% | 985.3 hPa | 0 mm | - | - | - |
| 1778144449 | 3.89° C | 77% | 985.3 hPa | 0 mm | - | - | - |
| 1778143525 | 3.89° C | 70% | 985.7 hPa | 0 mm | - | - | - |
| 1778142646 | 3.89° C | 70% | 985.6 hPa | 0 mm | - | - | - |
| 1778141724 | 3.89° C | 70% | 985.6 hPa | 0 mm | - | - | - |
| 1778140848 | 3.89° C | 72% | 985.3 hPa | 0 mm | - | - | - |
| 1778139925 | 4.44° C | 70% | 985.5 hPa | 0 mm | - | - | - |
| 1778139044 | 4.44° C | 70% | 985.5 hPa | 0 mm | - | - | - |
| 1778138124 | 4.44° C | 70% | 985.5 hPa | 0 mm | - | - | - |
| 1778137251 | 4.44° C | 70% | 985.5 hPa | 0 mm | - | - | - |
| 1778136324 | 4.44° C | 69% | 986.3 hPa | 0 mm | - | - | - |
| 1778135440 | 4.44° C | 69% | 986.3 hPa | 0 mm | - | - | - |
| 1778134524 | 5° C | 69% | 986.3 hPa | 0 mm | - | - | - |
| 1778133650 | 5° C | 69% | 986.3 hPa | 0 mm | - | - | - |
| 1778132724 | 5° C | 64% | 986.9 hPa | 0 mm | - | - | - |
| 1778131843 | 6.11° C | 64% | 986.8 hPa | 0 mm | - | - | - |
| 1778130924 | 5.56° C | 64% | 986.8 hPa | 0 mm | - | - | - |
| 1778130053 | 5.56° C | 67% | 985.8 hPa | 0 mm | - | - | - |
| 1778129123 | 5.56° C | 58% | 986.6 hPa | 0 mm | - | - | - |
| 1778128239 | 5.56° C | 58% | 986.6 hPa | 0 mm | - | - | - |
| 1778127323 | 6.11° C | 58% | 986.6 hPa | 0 mm | - | - | - |
| 1778126453 | 6.67° C | 58% | 986.6 hPa | 0 mm | - | - | - |
| 1778125524 | 6.67° C | 47% | 987.6 hPa | 0 mm | - | - | - |
| 1778124638 | 6.11° C | 53% | 985.8 hPa | 0 mm | - | - | - |
* Rain latest hour (hover to see other rain measurements)
** Current wind speed in m/s (hover to see current wind gust speed)